Temperature
8 9 9 9 9 9 10 10 10 9 8 8 9 9 9 8 6 6 6 5 5 4 4 5 5 5 6 6 6 6 7 7 7 7 7 7 7 7 7 7 7 7 6 6
9 8 8 8 8 8 9 9 9 8 7 8 8 8 9 8 7 6 6 5 5 4 4 4 4 5 5 5 6 6 6 6 6 6 6 6 6 6 6 6 6 6 6 6
8 7 7 7 7 8 8 9 8 8 7 7 7 9 8 8 6 5 5 4 4 4 3 3 3 4 4 5 5 5 5 6 6 6 6 6 6 6 6 6 6 6 6 6
7 6 6 7 7 7 8 7 7 7 7 8 8 9 9 8 7 6 5 4 4 3 3 3 3 3 4 4 5 5 5 5 5 5 5 5 5 5 5 5 5 5 5 5
6 6 6 6 6 6 7 6 6 7 7 7 7 8 9 7 6 7 5 4 3 3 2 2 3 3 3 4 4 4 4 4 5 5 5 5 5 5 5 5 5 5 5 5
6 5 5 6 5 6 5 6 6 6 7 7 8 8 9 7 6 6 5 3 2 2 2 2 2 3 3 3 3 4 4 4 4 4 4 4 5 5 4 4 5 4 4 4
6 5 5 5 5 5 6 7 7 7 7 8 6 7 7 6 5 5 4 2 1 1 1 1 2 2 3 3 3 3 3 3 4 4 4 4 4 4 4 4 4 4 4 4
6 6 5 4 5 5 5 6 7 7 8 8 5 6 7 4 3 2 2 1 1 0 0 1 1 2 2 3 3 3 3 3 3 3 3 3 3 3 4 4 4 4 4 4
6 6 4 4 4 5 5 6 6 6 5 6 7 6 5 4 3 2 1 0 -0 -0 -0 0 1 2 2 2 3 3 3 3 3 3 3 3 3 3 3 3 3 3 3 3
4 4 4 3 4 4 4 5 5 5 6 7 7 6 7 4 3 2 1 0 -0 -1 -1 -0 0 1 1 2 2 2 2 2 2 2 3 2 3 3 3 3 3 3 3 3
3 3 3 3 3 4 3 4 4 5 5 6 6 7 5 4 3 2 1 -0 -1 -1 -1 -1 -0 0 0 1 1 2 2 2 2 2 2 2 2 2 2 2 2 2 2 2
3 3 3 4 2 2 3 4 4 5 5 5 6 6 2 2 1 1 -0 -1 -2 -2 -2 -1 -1 -1 -0 -0 0 1 1 1 1 1 1 1 1 2 2 1 1 2 2 1
2 2 3 4 3 2 2 2 2 3 4 4 5 6 1 0 0 -1 -2 -2 -2 -3 -2 -2 -2 -1 -1 -1 -0 0 0 1 1 1 1 1 1 1 1 1 1 1 1 1
2 2 3 4 4 3 2 1 1 2 3 4 4 5 2 1 0 -1 -2 -3 -3 -3 -3 -3 -2 -2 -1 -1 -1 -1 -0 -0 -0 0 0 0 0 0 0 0 0 0 0 -0
1 2 1 2 1 1 1 1 1 1 2 3 4 2 2 1 -0 -1 -2 -3 -4 -4 -4 -3 -3 -3 -2 -2 -1 -1 -1 -1 -1 -1 -1 -1 -0 -0 -1 -1 -1 -1 -1 -1
-0 0 -0 0 0 0 0 0 0 0 1 1 1 1 1 -1 -2 -2 -3 -4 -4 -4 -4 -4 -3 -3 -3 -2 -2 -2 -2 -1 -1 -1 -1 -1 -1 -1 -1 -1 -1 -2 -2 -2
-1 -1 0 1 -0 -0 1 1 -0 -0 -1 0 1 1 -1 -2 -2 -3 -4 -4 -5 -5 -5 -4 -4 -3 -3 -3 -2 -2 -2 -2 -2 -2 -2 -2 -2 -2 -2 -2 -2 -2 -2 -2
-2 -1 -0 0 -0 0 2 -1 -1 -1 -1 -2 -1 -1 -2 -2 -4 -4 -4 -5 -5 -5 -5 -5 -4 -4 -3 -3 -3 -3 -3 -3 -3 -3 -3 -2 -2 -2 -3 -3 -3 -3 -3 -3
-2 -1 -1 -0 0 1 1 -2 -2 -2 -2 -2 -2 -2 -3 -5 -4 -4 -4 -5 -5 -5 -5 -5 -4 -4 -4 -4 -4 -4 -4 -4 -4 -3 -3 -3 -3 -3 -3 -4 -4 -4 -4 -4
-3 -3 -1 -1 -0 1 1 -2 -4 -2 -1 -2 -3 -3 -4 -5 -2 -2 -5 -5 -6 -5 -5 -5 -5 -5 -4 -4 -4 -4 -4 -4 -4 -4 -4 -4 -4 -4 -4 -4 -4 -5 -5 -5
-3 -3 -2 -1 -1 0 -2 -4 -3 -1 0 -3 -4 -4 -5 -5 -4 -5 -6 -6 -6 -6 -6 -5 -5 -5 -5 -5 -5 -5 -5 -5 -5 -5 -5 -5 -5 -5 -5 -5 -5 -5 -6 -6
-2 -2 -3 -2 -1 -0 -4 -4 -3 -2 -4 -4 -5 -5 -5 -6 -6 -6 -6 -6 -6 -6 -6 -6 -6 -6 -6 -6 -6 -6 -6 -6 -5 -5 -6 -6 -6 -6 -6 -6 -6 -6 -6 -7
-3 -3 -2 -2 -1 -3 -5 -5 -4 -5 -5 -5 -5 -6 -6 -7 -7 -7 -7 -7 -7 -7 -7 -7 -6 -6 -6 -6 -6 -6 -6 -6 -6 -6 -6 -6 -7 -7 -7 -7 -7 -7 -7 -8
-4 -6 -5 -5 -4 -5 -5 -5 -5 -6 -6 -6 -6 -6 -7 -7 -7 -7 -8 -8 -8 -7 -7 -7 -7 -7 -7 -7 -7 -7 -7 -7 -7 -7 -7 -7 -7 -8 -8 -8 -8 -8 -8 -8
-4 -6 -6 -5 -5 -6 -6 -6 -6 -6 -6 -6 -6 -7 -7 -7 -8 -8 -8 -8 -8 -8 -8 -8 -8 -8 -8 -8 -8 -8 -8 -8 -8 -8 -8 -8 -8 -8 -8 -9 -9 -9 -9 -9
-6 -6 -5 -3 -4 -5 -5 -5 -6 -6 -7 -7 -7 -7 -8 -8 -8 -8 -8 -9 -9 -8 -9 -9 -9 -9 -9 -9 -9 -9 -9 -9 -9 -9 -9 -9 -9 -9 -9 -9 -9 -9 -10 -10
Wind_Speed
1 2 4 4 5 5 4 6 8 6 4 5 8 9 7 5 6 7 6 6 6 7 6 4 3 3 4 5 6 6 6 6 6 5 6 5 5 5 4 4 7 8 8 8
2 3 3 3 3 4 5 6 7 4 3 5 7 10 8 6 7 7 7 7 7 6 5 4 3 3 4 4 5 6 7 6 6 6 5 5 5 4 4 4 5 7 8 8
4 0 1 2 2 4 6 7 6 5 3 4 5 8 7 5 4 4 5 6 6 6 6 5 4 4 4 4 5 5 6 6 6 5 5 5 5 4 4 4 4 6 7 8
2 1 1 2 3 4 6 4 5 4 5 5 5 6 6 5 5 5 5 5 6 5 6 5 5 5 5 5 5 5 5 6 6 6 7 8 7 6 5 5 5 6 7 7
2 1 2 3 4 4 3 2 4 6 6 6 6 7 5 4 6 6 4 4 5 5 5 5 5 5 4 4 4 4 5 5 5 5 7 8 6 5 5 5 6 6 5 6
2 1 2 3 2 3 1 2 3 4 5 8 9 8 6 4 6 5 4 4 4 3 4 4 4 3 3 3 3 4 5 5 5 5 6 7 7 6 7 7 6 5 4 5
2 2 1 1 0 2 1 2 2 4 6 6 4 6 6 1 2 3 4 4 3 2 2 2 3 3 3 3 3 4 5 5 5 6 6 6 6 7 8 8 7 6 5 5
3 3 2 1 2 3 4 4 4 4 5 4 3 7 3 1 2 3 3 3 2 2 2 2 2 3 3 4 4 4 5 5 5 5 6 6 6 5 5 6 6 6 5 6
3 3 0 1 1 3 3 4 4 4 4 6 6 4 4 1 2 3 4 4 3 3 3 3 3 3 3 3 4 5 5 5 5 5 5 5 5 5 5 6 6 5 5 5
2 4 3 2 1 1 2 3 3 4 4 6 6 6 4 3 3 3 4 4 4 4 4 3 3 3 3 3 3 4 4 5 4 4 5 4 5 5 5 5 6 6 6 6
2 3 3 2 4 5 3 4 4 4 4 5 6 4 1 2 2 2 4 4 4 4 4 4 3 3 3 2 1 2 3 4 4 4 5 5 5 5 5 5 5 6 6 7
2 3 5 4 2 3 5 6 6 5 5 6 6 5 3 1 1 2 4 5 5 4 4 3 3 3 3 2 1 1 1 3 4 4 4 4 4 4 5 5 4 5 6 6
2 3 3 3 3 3 4 4 6 5 4 6 8 5 2 2 3 4 4 5 5 5 4 3 3 3 3 2 1 1 1 2 2 4 4 4 4 5 5 5 4 5 5 5
2 4 7 7 4 2 5 6 7 8 7 9 11 10 4 4 5 6 5 5 5 4 4 3 3 3 3 2 1 1 1 1 2 3 4 4 4 4 4 4 4 5 5 5
2 5 6 8 7 5 7 9 10 12 11 11 10 9 9 5 6 6 5 4 5 5 4 3 3 3 3 2 2 1 1 1 2 3 3 3 3 3 4 4 4 4 4 4
1 3 4 6 6 5 8 10 11 12 12 12 12 11 6 5 4 5 4 4 4 5 5 5 4 3 3 3 2 1 0 1 2 2 2 2 3 3 4 4 4 4 4 4
3 3 3 5 4 5 9 9 11 8 8 8 10 8 3 5 5 6 5 4 5 6 5 5 4 4 3 2 2 1 0 1 2 2 2 2 2 3 3 4 4 4 4 4
5 4 3 3 3 7 3 1 5 8 8 9 7 5 5 6 6 6 4 4 5 5 5 5 4 4 3 2 1 1 1 1 2 2 2 2 2 2 3 4 4 4 4 4
5 5 4 3 5 8 3 1 3 5 7 7 8 6 5 4 4 3 1 3 4 5 5 4 4 3 3 1 1 1 1 2 2 2 1 2 2 2 3 3 3 3 4 3
2 4 4 4 5 6 2 0 1 2 6 3 5 5 3 2 4 3 2 4 4 4 3 3 2 2 1 1 1 1 2 2 1 1 1 1 2 3 3 2 3 3 3 3
2 3 6 6 6 6 2 0 2 4 4 1 4 4 4 5 5 3 3 4 4 3 3 2 1 1 1 1 1 1 1 1 1 1 2 2 2 2 2 2 2 3 3 3
5 5 5 5 6 6 2 4 5 4 2 1 3 3 4 4 3 2 2 3 3 3 2 2 2 2 2 1 1 2 1 1 2 2 2 2 2 2 2 3 2 3 3 4
6 5 4 6 5 2 4 4 3 2 2 2 2 3 3 2 2 2 2 2 2 2 2 1 1 1 2 2 1 2 1 2 2 3 3 2 3 2 2 2 3 3 3 3
4 2 4 5 7 6 5 5 4 3 4 3 3 2 3 3 2 2 2 1 1 1 1 1 1 1 2 2 2 1 2 2 3 3 3 3 3 2 2 2 2 2 2 2
4 5 4 7 7 5 5 6 5 4 3 2 2 2 2 2 2 2 2 1 1 1 1 1 1 1 1 1 2 2 2 2 3 3 3 2 2 2 2 2 1 1 1 2
5 6 6 7 4 4 5 3 3 3 3 2 1 1 2 2 2 2 1 1 0 0 0 1 1 1 1 1 1 2 1 2 2 2 2 2 2 2 2 2 2 2 1 1
Wind_Direction
117 176 211 222 225 248 235 238 246 252 244 240 245 258 263 245 242 247 248 245 245 248 247 236 232 226 215 210 203 196 187 186 176 173 171 170 172 161 155 156 158 159 158 157
164 218 248 251 226 227 228 242 253 261 240 243 255 262 261 246 242 247 252 252 250 253 249 239 229 221 219 215 211 204 194 186 185 181 177 174 164 162 154 152 159 162 160 160
197 276 251 203 199 220 238 244 252 259 260 235 260 262 243 233 232 251 257 261 259 247 240 234 229 226 223 220 217 213 200 192 189 176 160 145 143 140 155 163 168 171 167 166
210 265 219 205 223 242 245 248 248 242 237 241 232 260 240 231 239 252 259 259 259 255 245 234 229 228 224 221 215 211 202 191 180 170 176 176 179 178 182 175 174 170 170 170
212 236 227 235 253 244 261 262 240 238 237 251 230 243 252 214 247 255 261 262 261 252 247 241 235 230 226 217 209 204 197 185 177 179 182 186 185 178 167 167 169 168 167 171
255 255 270 264 276 232 236 217 215 218 228 242 229 228 255 224 245 259 277 296 293 278 258 251 249 239 231 216 203 200 195 189 180 182 181 187 182 170 167 170 171 172 169 172
257 220 251 275 243 189 234 211 231 224 223 239 194 225 248 255 285 288 295 302 309 306 286 271 264 248 232 219 210 205 198 194 189 185 185 186 183 178 180 179 179 176 176 180
257 244 208 238 237 217 218 219 227 248 253 257 210 230 233 21 348 342 340 329 337 335 316 298 275 266 248 226 213 207 202 197 192 188 189 184 180 182 186 185 182 183 185 184
249 259 335 259 275 212 196 215 247 257 264 256 235 238 265 255 350 359 358 355 337 322 314 312 303 284 264 241 221 211 204 196 192 190 184 181 181 184 182 181 181 181 178 175
243 268 278 290 227 229 252 196 199 224 245 253 247 242 243 231 274 322 336 329 320 318 313 313 307 300 285 264 242 217 208 199 192 185 181 183 184 184 178 177 179 178 177 172
235 247 271 234 217 219 192 199 218 224 246 250 260 248 190 211 240 289 311 317 315 307 305 304 304 305 302 287 268 231 213 199 189 184 181 179 178 173 169 175 179 178 177 175
227 241 258 249 260 271 239 227 214 230 235 237 256 260 112 175 288 319 325 331 327 319 314 309 309 313 309 296 284 262 229 206 193 184 179 178 170 165 168 173 177 175 177 178
201 215 256 242 209 204 230 229 226 238 246 234 242 252 112 359 336 337 329 330 332 328 328 327 322 314 309 297 287 270 236 213 193 181 176 173 172 172 175 175 173 172 174 174
248 227 238 254 277 232 239 235 219 213 233 243 242 258 269 300 311 319 321 320 325 326 331 335 330 320 314 303 290 261 244 205 179 170 174 175 177 177 176 170 169 171 172 173
237 245 245 263 273 264 259 250 229 224 234 245 255 255 268 273 280 295 304 308 319 326 330 329 324 323 321 319 311 293 255 177 164 166 170 179 173 167 163 160 166 165 168 174
244 246 252 262 251 258 267 259 241 239 243 247 262 265 275 289 287 293 294 295 306 313 318 321 320 321 317 315 312 304 300 152 153 157 165 161 156 156 158 161 160 159 163 167
218 210 233 257 276 277 262 243 224 227 226 227 241 253 272 284 285 286 282 283 294 303 306 311 309 303 303 299 292 278 299 127 139 141 143 147 148 157 156 153 156 161 164 164
203 206 227 261 265 244 250 126 212 224 236 223 244 267 266 277 291 284 264 282 299 303 303 302 305 307 312 311 318 355 96 124 133 135 136 138 139 145 154 156 160 163 163 168
214 206 218 227 247 264 260 209 207 226 256 227 240 265 286 313 299 258 242 300 298 299 297 296 298 298 307 318 355 87 98 113 123 130 136 149 148 144 150 164 168 168 166 164
180 208 220 221 243 251 276 178 258 215 260 216 225 244 259 271 261 274 316 314 314 317 316 314 316 316 317 346 61 106 107 109 112 109 127 144 146 151 156 157 161 159 158 157
187 205 221 232 245 262 296 201 177 222 282 307 223 225 217 231 267 298 301 307 314 320 329 338 342 340 341 23 96 112 104 96 84 88 100 110 121 132 135 131 136 144 149 150
200 201 210 216 232 252 139 147 198 261 341 254 228 227 231 254 297 299 297 303 316 339 357 11 18 13 14 40 98 103 81 59 77 97 105 106 106 110 123 130 130 137 148 153
217 216 215 213 234 320 169 210 265 316 281 280 259 253 231 243 265 280 291 299 313 335 351 3 35 45 27 27 69 88 58 62 85 100 104 103 99 99 118 134 136 139 149 162
226 227 232 254 263 268 253 264 289 291 286 288 266 242 222 231 242 259 276 291 309 325 343 2 78 73 34 22 34 56 58 78 93 99 101 105 109 106 107 121 136 144 156 165
227 190 221 250 271 286 265 258 271 281 293 295 288 260 231 224 247 253 264 268 274 346 14 83 106 92 42 29 30 37 59 89 98 98 97 99 99 101 103 107 119 144 173 176
209 203 211 242 244 244 274 286 269 254 261 255 254 268 253 226 227 241 248 251 222 117 87 96 94 88 58 45 31 30 48 98 112 107 102 102 100 102 109 110 96 86 101 79
Height
1482 1482 1479 1480 1482 1480 1479 1479 1478 1480 1484 1485 1481 1480 1481 1484 1485 1484 1484 1484 1484 1485 1486 1486 1486 1487 1488 1489 1491 1493 1494 1496 1499 1501 1504 1506 1508 1511 1514 1516 1518 1520 1522 1524
1481 1481 1483 1484 1484 1483 1481 1479 1478 1481 1485 1484 1481 1479 1477 1480 1481 1481 1481 1481 1481 1482 1482 1482 1483 1483 1484 1486 1487 1490 1492 1493 1496 1498 1501 1503 1506 1508 1511 1513 1515 1517 1519 1521
1479 1483 1484 1484 1483 1482 1480 1479 1479 1481 1483 1484 1482 1473 1472 1475 1478 1479 1479 1479 1479 1479 1479 1479 1480 1480 1481 1482 1484 1486 1488 1490 1493 1495 1498 1500 1503 1505 1507 1509 1512 1514 1516 1518
1482 1484 1485 1483 1482 1481 1478 1481 1482 1483 1480 1475 1479 1468 1464 1470 1473 1474 1476 1476 1476 1476 1477 1477 1477 1478 1478 1480 1482 1483 1485 1488 1490 1492 1494 1496 1498 1500 1503 1506 1508 1511 1513 1515
1482 1484 1483 1482 1482 1483 1480 1483 1483 1482 1479 1477 1476 1473 1460 1469 1469 1469 1472 1473 1473 1473 1474 1474 1475 1476 1476 1477 1479 1480 1483 1484 1486 1489 1491 1493 1496 1498 1501 1503 1505 1507 1509 1512
1484 1485 1485 1483 1484 1484 1484 1482 1482 1481 1478 1474 1470 1470 1459 1464 1466 1466 1470 1472 1472 1471 1472 1472 1473 1474 1474 1475 1476 1478 1479 1481 1483 1485 1487 1489 1492 1495 1497 1499 1501 1503 1506 1508
1482 1483 1485 1485 1483 1483 1482 1478 1474 1472 1469 1462 1471 1470 1463 1466 1469 1469 1470 1470 1470 1470 1470 1470 1470 1471 1471 1472 1473 1475 1476 1478 1480 1482 1484 1486 1489 1491 1493 1496 1498 1500 1502 1504
1479 1477 1482 1484 1482 1482 1480 1477 1473 1470 1463 1459 1473 1467 1463 1469 1471 1471 1470 1470 1469 1469 1469 1468 1469 1469 1469 1470 1471 1472 1473 1475 1477 1479 1481 1483 1485 1488 1490 1492 1495 1496 1498 1500
1479 1477 1483 1483 1483 1482 1479 1477 1478 1475 1474 1470 1460 1463 1466 1468 1470 1470 1470 1469 1468 1468 1467 1467 1467 1467 1467 1467 1468 1469 1470 1472 1474 1476 1477 1480 1482 1484 1487 1489 1491 1493 1495 1497
1483 1484 1482 1484 1483 1483 1481 1479 1478 1474 1470 1461 1456 1459 1456 1464 1466 1468 1469 1468 1467 1467 1466 1465 1465 1465 1465 1465 1466 1467 1468 1469 1470 1472 1474 1476 1479 1481 1483 1485 1487 1489 1491 1493
1485 1485 1482 1482 1480 1478 1481 1481 1477 1472 1470 1463 1456 1453 1459 1462 1465 1467 1468 1468 1467 1465 1464 1463 1463 1463 1463 1463 1463 1464 1465 1467 1468 1470 1471 1474 1476 1478 1479 1481 1483 1485 1487 1489
1485 1483 1479 1478 1482 1482 1479 1476 1476 1471 1470 1468 1459 1457 1464 1465 1466 1468 1468 1467 1465 1464 1463 1462 1461 1460 1460 1460 1460 1461 1462 1464 1465 1467 1469 1470 1472 1474 1476 1477 1479 1481 1483 1485
1484 1484 1477 1472 1479 1483 1481 1479 1478 1477 1472 1466 1461 1456 1465 1465 1466 1467 1467 1466 1464 1462 1461 1459 1458 1458 1458 1458 1458 1458 1460 1461 1463 1464 1466 1467 1469 1470 1472 1474 1476 1477 1479 1481
1483 1481 1477 1467 1464 1472 1476 1478 1478 1476 1469 1462 1458 1455 1461 1464 1465 1465 1465 1464 1463 1461 1459 1457 1456 1456 1456 1456 1456 1456 1457 1458 1460 1461 1463 1464 1466 1467 1469 1471 1472 1474 1475 1477
1483 1479 1478 1475 1475 1476 1475 1474 1475 1473 1466 1461 1455 1460 1459 1463 1465 1464 1463 1462 1461 1459 1457 1456 1455 1454 1454 1454 1454 1454 1455 1456 1457 1458 1459 1461 1463 1464 1466 1467 1469 1471 1472 1474
1483 1481 1480 1477 1475 1475 1474 1471 1471 1470 1468 1464 1462 1460 1461 1463 1464 1463 1461 1460 1459 1457 1456 1454 1453 1452 1452 1452 1452 1452 1452 1453 1454 1455 1457 1458 1460 1461 1463 1464 1466 1468 1469 1471
1482 1482 1478 1469 1474 1473 1464 1462 1465 1465 1464 1463 1459 1458 1461 1461 1461 1460 1459 1458 1457 1456 1454 1452 1451 1451 1451 1451 1451 1451 1451 1451 1452 1453 1454 1456 1457 1458 1460 1461 1463 1464 1466 1467
1482 1480 1477 1472 1473 1467 1456 1463 1462 1462 1461 1462 1460 1459 1460 1459 1459 1458 1457 1456 1455 1454 1452 1451 1450 1449 1449 1449 1450 1450 1450 1450 1450 1451 1452 1453 1454 1456 1457 1459 1460 1461 1463 1464
1479 1478 1475 1472 1465 1455 1457 1462 1463 1463 1458 1458 1458 1458 1458 1458 1456 1455 1455 1454 1454 1452 1451 1449 1448 1448 1447 1448 1448 1448 1448 1448 1449 1449 1450 1451 1452 1453 1454 1456 1457 1458 1460 1461
1479 1478 1475 1471 1464 1454 1452 1460 1461 1462 1454 1453 1455 1456 1457 1457 1453 1451 1452 1451 1451 1450 1448 1447 1446 1446 1446 1446 1446 1446 1446 1447 1447 1448 1448 1449 1450 1451 1452 1453 1454 1455 1456 1458
1476 1475 1473 1468 1463 1454 1458 1460 1461 1457 1449 1452 1452 1453 1454 1454 1453 1452 1450 1449 1449 1447 1446 1445 1445 1445 1445 1445 1445 1445 1445 1445 1446 1446 1447 1447 1448 1449 1450 1451 1452 1453 1454 1456
1469 1468 1469 1467 1462 1456 1459 1459 1458 1453 1452 1451 1451 1451 1451 1451 1450 1450 1449 1448 1446 1445 1444 1443 1443 1443 1443 1443 1443 1443 1444 1444 1444 1445 1445 1446 1447 1448 1449 1449 1450 1451 1452 1453
1467 1465 1461 1462 1457 1456 1456 1454 1453 1452 1451 1450 1450 1449 1449 1448 1448 1448 1447 1446 1444 1443 1443 1442 1442 1441 1442 1442 1442 1442 1443 1443 1443 1444 1444 1445 1445 1446 1447 1448 1448 1449 1450 1451
1464 1465 1463 1461 1454 1454 1453 1452 1451 1450 1450 1449 1448 1447 1447 1446 1446 1446 1445 1444 1443 1442 1441 1441 1440 1440 1440 1440 1440 1441 1442 1442 1442 1442 1443 1443 1444 1445 1445 1446 1447 1447 1448 1449
1458 1461 1460 1457 1452 1451 1449 1448 1448 1448 1447 1446 1446 1445 1445 1444 1444 1443 1443 1442 1441 1440 1439 1439 1439 1439 1439 1440 1440 1440 1441 1441 1441 1441 1441 1442 1443 1443 1444 1445 1445 1446 1447 1448
1455 1455 1454 1447 1447 1448 1446 1445 1445 1445 1444 1444 1443 1443 1443 1443 1442 1442 1441 1440 1440 1439 1438 1438 1438 1438 1438 1439 1439 1439 1440 1440 1440 1440 1440 1441 1441 1442 1443 1443 1444 1445 1446 1446